Location: Poughquag
(41.6090°N, 73.6820°W)
Time: 11:40:18
(UTC-04:00)

Tiros 1 - Pass Details

Date: 04 June 2020
Orbit: 630 x 664 km, 48.4° (Epoch: 06 July)

Event Time Altitude Azimuth Distance (km) Brightness Sun altitude
Rises 11:56:36 0° 240° (WSW) 2,978 10.5 67.5°
Reaches altitude 10° 11:58:57 10° 240° (WSW) 2,064 9.9 67.8°
Maximum altitude 12:03:44 90° 322° (NW) 657 8.8 68.3°
Drops below altitude 10° 12:08:29 10° 62° (ENE) 2,051 9.9 68.8°
Sets 12:10:48 0° 62° (ENE) 2,957 10.6 69.0°
